Regional Weather Roundup
Issued by NWS

Home | Current Version | Previous Version | Graphics & Text | Print | Product List | Glossary On
Versions: 1 2 3 4 5 6 7 8 9 10 11 12 13 14 15 16 17 18 19 20 21 22 23 24 25 26 27
000
ASUS45 KBOU 230607
RWRCO

WEATHER ROUNDUP FOR COLORADO
NATIONAL WEATHER SERVICE DENVER/BOULDER CO
1100 PM MST WED FEB 22 2017

NOTE: "FAIR" INDICATES FEW OR NO CLOUDS BELOW 12000 FEET WITH NO
SIGNIFICANT WEATHER AND/OR OBSTRUCTIONS TO VISIBILITY.

COZ001>005-013-030-031-230700-
...NORTHWEST COLORADO...

CITY           SKY/WX    TMP DP  RH WIND       PRES   REMARKS
CRAIG          MOCLDY    29  25  85 CALM      29.58F
HAYDEN         CLOUDY    28  23  80 SW3       29.57F
MEEKER         MOCLDY    30  27  88 NE6       29.56F WCI  24
MOUNT WERNER   NOT AVBL
STEAMBOAT SPGS FAIR      27  26  98 CALM      29.56F
WALDEN         NOT AVBL
$$

COZ006>008-011-230700-
...WEST CENTRAL VALLEYS...

CITY           SKY/WX    TMP DP  RH WIND       PRES   REMARKS
GRAND JUNCTION FAIR      50  21  32 NW8       29.53F
MONTROSE       FAIR      49  17  28 S14       29.62F
EAGLE          PTCLDY    46  21  36 SW18G31   29.58F
RIFLE          FAIR      53  14  21 SW30G48   29.53F
DELTA          FAIR      49  20  32 SW5       29.60S
NUCLA          FAIR      46  21  36 S24       29.65S
$$

COZ017>023-064>068-230700-
...SOUTHWEST COLORADO...

CITY           SKY/WX    TMP DP  RH WIND       PRES   REMARKS
DURANGO        FAIR      41  18  39 SW7       29.76F
CORTEZ         FAIR      44  18  35 SW15      29.70F
PAGOSA SPRINGS FAIR      43  15  32 SW6       29.80F
TELLURIDE      FAIR      37   8  30 S21G35    29.72F
WOLF CREEK PAS CLOUDY    21  14  73 SW35G53   29.82F HAZE    WCI   2
$$

COZ009-010-012-014-032>034-037-058>063-230700-
...CENTRAL COLORADO...

CITY           SKY/WX    TMP DP  RH WIND       PRES   REMARKS
ASPEN          MOCLDY    43  15  32 S7G22     29.60F
BUENA VISTA    FAIR      38  20  49 SE15      29.68F
COPPER MTN     FAIR      28  10  47 MISG      29.72F
BERTHOUD PASS  HAZE      14   3  62 SE32G38   29.72F VSB<1/4 WCI  -7
COTTONWOOD PAS MOCLDY    37  12  35 S14G32    29.71F
GUNNISON       FAIR      28  22  78 CALM      29.67F
KREMMLING      MOCLDY    37  30  75 N8        29.60F
LEADVILLE      CLOUDY    30  12  47 SE5       29.67F WCI  25
MONARCH PASS   CLOUDY    23  12  63 SW41G48   29.85F WCI   3
SALIDA         FAIR      43  22  44 S7        29.77F
SUNLIGHT       NOT AVBL
WILKERSON PASS MOCLDY    25  14  63 S15G28    29.78F WCI  12
$$

COZ069>075-230700-
...SAN LUIS VALLEY/SANGRE DE CRISTO MOUNTAINS...

CITY           SKY/WX    TMP DP  RH WIND       PRES   REMARKS
ALAMOSA        FAIR      40  21  46 SW21      29.75F
LA VETA PASS   MOCLDY    30  19  64 N23G39    29.81F WCI  17
SAGUACHE       FAIR      32  23  69 SE9       29.74F WCI  24
$$

COZ035-036-038>040-230700-
...NORTHERN COLORADO FRONT RANGE...

CITY           SKY/WX    TMP DP  RH WIND       PRES   REMARKS
DENVER INTL AP FAIR      32  22  66 NW7       29.75F WCI  26
DMNS CITY PARK   N/A     36  24  61 MISG      29.76F
AURORA         PTCLDY    30  23  73 NW6       29.75F WCI  24
FRONT RANGE AP FAIR      30  18  59 NW7       29.75F WCI  23
ERIE MUNI ARPT FAIR      33  25  71 W5        29.76F WCI  29
BOULDER MUN AP FAIR      36  27  69 NW5       29.76F
CENTENNIAL     FAIR      33  21  61 N7        29.75F WCI  27
BROOMFIELD     FAIR      34  27  75 NW3       29.76F
FORT COLLINS   FAIR      34  26  72 N6        29.77F WCI  29
LONGMONT       FAIR      36  27  69 W5        29.79F
$$

COZ041-046-047-076>085-087-088-230700-
...PIKES PEAK/PALMER DIVIDE AND SOUTHERN FOOTHILLS...

CITY           SKY/WX    TMP DP  RH WIND       PRES   REMARKS
COLO. SPRINGS  FAIR      38  15  39 N21G29    29.72S
A. F. ACADEMY  FAIR      35  15  43 N14       29.72F WCI  26
SCHRIEVER AFB  FAIR      36  15  42 N17G29    29.70F
ELLICOTT       FAIR     N/A N/A N/A N8        29.69S
FALCON         FAIR      33  14  47 N17G25    29.72F WCI  21
FORT CARSON    FAIR      40  16  36 N17G25    29.70S
LIMON          FAIR      30  17  58 NW10      29.68F WCI  21
MONUMENT HILL  FAIR      25  14  63 NW7       29.75F WCI  17
TRINIDAD       FAIR      49  25  39 W18G26    29.75F
$$

COZ042>045-048>051-090-091-230700-
...NORTHEAST COLORADO...

CITY           SKY/WX    TMP DP  RH WIND       PRES   REMARKS
GREELEY ARPT   FAIR      31  23  72 NW8       29.78  WCI  23
AKRON          FAIR      30  15  53 N12       29.71F WCI  20
BURLINGTON     FAIR      41  21  44 E9        29.67F
WRAY           NOT AVBL
STERLING       FAIR      34  19  55 N8        29.73S WCI  27
HOLYOKE        FAIR      37  27  65 NE14      29.73S
FORT MORGAN    FAIR      34  20  58 N16       29.72F WCI  23
$$

COZ086-089-092>099-230700-
...SOUTHEAST COLORADO...

CITY           SKY/WX    TMP DP  RH WIND       PRES   REMARKS
PUEBLO         FAIR      48  20  32 N21G28    29.64S
LA JUNTA       FAIR      56  25  30 SW17      29.64F
LAMAR          FAIR      46  25  43 E7        29.61F
SPRINGFIELD      N/A     58  22  24 W16G25    29.66F
$$




USA.gov is the U.S. government's official web portal to all federal, state and local government web resources and services.